Regional Weather Roundup
Issued by NWS Goodland, KS

Home | Current Version | Previous Version | Graphics & Text | Print | Product List | Glossary On
Versions: 1 2 3 4 5 6 7 8 9 10 11 12 13 14 15 16 17 18 19 20 21 22 23 24 25 26 27 28 29 30 31 32 33 34 35 36 37 38 39 40 41 42 43 44 45 46 47 48 49 50
000
ASUS43 KGLD 281908
RWRGLD

GOODLAND FORECAST AREA HOURLY WEATHER ROUNDUP
NATIONAL WEATHER SERVICE GOODLAND KS
100 PM MDT THU APR 28 2016

...OFFICIAL OBSERVATIONS...

CITY           SKY/WX    TMP DP  RH WIND       PRES   REMARKS
GOODLAND KS    CLOUDY    47  31  53 NE10      29.99F
HILL CITY KS   CLOUDY    51  36  56 N9        30.02S
IMPERIAL NEB   CLOUDY    46  30  53 NE5       30.02R
MCCOOK NEB     CLOUDY    52  35  52 VRB3      30.01R
AKRON CO       LGT SNOW  35  33  92 E8        29.99F FOG
BURLINGTON CO  CLOUDY    44  31  60 NE12      29.99F
LIMON CO       CLOUDY    37  33  85 VRB5      29.98F
$$

...UNOFFICIAL OBSERVATIONS...

CITY           SKY/WX    TMP DP  RH WIND       PRES   REMARKS
COLBY KS       CLOUDY    48  39  71 N10       30.01F
GOVE KS          N/A     51  32  48 MISG        N/A
LENORA KS        N/A     49  32  52 MISG        N/A
NORTON KS      DRIZZLE   50  34  53 CALM      30.02R
SHARON SPRINGS   N/A     50  35  57 NE9         N/A
KIT CARSON CO    N/A     45  31  58 MISG        N/A
YUMA CO          N/A     38  35  90 NE6         N/A
$$



USA.gov is the U.S. government's official web portal to all federal, state and local government web resources and services.